This is the latest recevied weather packets stored in our database for station/object DH6PF-10. If no packets are shown the sender has not sent any weather packets the latest 10 day(s).
| Time | Temp. | Humidity | Pressure | Rain* | Wind** | Luminosity | Snow |
|---|---|---|---|---|---|---|---|
| 1787672510 | 17.78° C | 78% | 1017.2 hPa | - | - | - | - |
| 1787671910 | 17.78° C | 78% | 1017.3 hPa | - | - | - | - |
| 1787671310 | 18.33° C | 78% | 1017.3 hPa | - | - | - | - |
| 1787670710 | 18.33° C | 75% | 1017.1 hPa | - | - | - | - |
| 1787670110 | 18.89° C | 74% | 1017.2 hPa | - | - | - | - |
| 1787669510 | 19.44° C | 73% | 1017.1 hPa | - | - | - | - |
| 1787668910 | 18.89° C | 72% | 1017 hPa | - | - | - | - |
| 1787668310 | 19.44° C | 73% | 1017 hPa | - | - | - | - |
| 1787667710 | 20° C | 72% | 1017.1 hPa | - | - | - | - |
| 1787667110 | 19.44° C | 69% | 1016.7 hPa | - | - | - | - |
| 1787666510 | 19.44° C | 69% | 1016.9 hPa | - | - | - | - |
| 1787665910 | 19.44° C | 70% | 1016.8 hPa | - | - | - | - |
| 1787665310 | 19.44° C | 70% | 1016.9 hPa | - | - | - | - |
| 1787664710 | 18.89° C | 71% | 1016.7 hPa | - | - | - | - |
| 1787664110 | 18.89° C | 73% | 1016.7 hPa | - | - | - | - |
| 1787663510 | 18.89° C | 72% | 1016.6 hPa | - | - | - | - |
| 1787662910 | 19.44° C | 68% | 1016.5 hPa | - | - | - | - |
| 1787662310 | 18.89° C | 71% | 1016.7 hPa | - | - | - | - |
| 1787661710 | 18.89° C | 67% | 1016.6 hPa | - | - | - | - |
| 1787661110 | 18.89° C | 67% | 1016.4 hPa | - | - | - | - |
| 1787660510 | 19.44° C | 67% | 1016.3 hPa | - | - | - | - |
| 1787659910 | 19.44° C | 65% | 1016.7 hPa | - | - | - | - |
| 1787659310 | 19.44° C | 63% | 1016.4 hPa | - | - | - | - |
| 1787658710 | 19.44° C | 63% | 1016.1 hPa | - | - | - | - |
| 1787658110 | 18.89° C | 68% | 1016.3 hPa | - | - | - | - |
* Rain since midnight (hover to see other rain measurements)
** Current wind speed in m/s (hover to see current wind gust speed)